Back to catalog

INSAT 2E

APR-1

AliveCommunicationsGEO
NORAD 25666·PAYLOAD·🇮🇳 India

Launched Apr 2, 1999 from Guiana Space Centre

Loading…

TLE

FreshSource: Space-Track

Epoch: Sep 14, 2026, 12:59 UTC

1 25666U 99016A   26257.54152718 -.00000107  00000-0  00000-0 0  9994
2 25666  11.5173  39.5115 0008557 292.8810  33.0461  0.99661888 52328

Track INSAT 2E in real time with AllMySat

Download on the App Store